Printer-friendly version

IAU Minor Planet Center

Minor Planet Center

MPEC 2006-Q21 : 2006 BZ8

The following Minor Planet Electronic Circular may be linked-to from your own Web pages, but must not otherwise be redistributed electronically.


Read MPEC 2006-Q20 Read MPEC 2006-Q22


M.P.E.C. 2006-Q21                                Issued 2006 Aug. 23, 16:47 UT

     The Minor Planet Electronic Circulars contain information on unusual
         minor planets and routine data on comets.  They are published
   on behalf of Commission 20 of the International Astronomical Union by the
          Minor Planet Center, Smithsonian Astrophysical Observatory,
                          Cambridge, MA 02138, U.S.A.

                  Supported in part by the Brinson Foundation
                  Supported in part by the TABASGO Foundation
             Prepared using the Tamkin Foundation Computer Network

                              MPC@CFA.HARVARD.EDU
          URL http://cfa-www.harvard.edu/iau/mpc.html  ISSN 1523-6714

                                   2006 BZ8

                           Revision to MPEC 2006-B67

Additional Observations:
     K06B08Z  C2006 08 22.11250 06 44 25.58 +34 19 48.0                 EQ021204
     K06B08Z  C2006 08 22.12773 06 44 25.07 +34 19 52.4          19.0 R EQ021204
     K06B08Z BC2006 08 22.15767 06 44 23.99 +34 19 59.9                 EQ021J95
     K06B08Z BC2006 08 22.16035 06 44 24.00 +34 20 01.3          18.8 R EQ021J95
     K06B08Z  C2006 08 23.12263 06 43 51.24 +34 24 18.8          18.9 R EQ021204
     K06B08Z  C2006 08 23.12729 06 43 51.07 +34 24 20.1                 EQ021204

Observer details:
204 Schiaparelli Observatory.  Observers L. Buzzi, F. Luppi.  Measurer
    L. Buzzi.  0.60-m f/4.64 reflector + CCD.
J95 Great Shefford.  Observer P. Birtwhistle.  0.40-m f/6.0 Schmidt-Cassegrain
    + CCD.

First and last observations above in comparison with prediction:
Residuals in seconds of arc, reference and Delta-T
060822 204  0.6-  0.8-    060823 204  0.6-  0.6-    MPO102271   -0.0038 day

Orbital elements:
2006 BZ8
Epoch 2006 Sept. 22.0 TT = JDT 2454000.5                MPC
M   2.67969              (2000.0)            P               Q
n   0.03279798     Peri.   82.17487     -0.19374256     +0.98093238
a   9.6658044      Node   183.46091     +0.76976137     +0.16169483
e   0.8036701      Incl.  165.27356     +0.60821974     +0.10782603
P  30.05           H   14.2           G   0.15           U   3
Residuals in seconds of arc
060123 703  1.4-  0.3+    060131 844  0.1-  1.3-    060223 704  0.8+  0.8+
060123 703  0.7-  0.2-    060131 844  0.5-  0.5+    060223 A70  0.5+  0.6+
060123 703  1.0-  0.3+    060202 651  0.4+  0.3+    060223 A70  0.2-  1.2+
060123 703  0.3-  0.6+    060202 651  0.4+  0.1+    060223 A70  0.5+  0.6+
060123 703  0.8-  0.1-    060202 651  0.4+  0.1+    060227 A70  0.4-  0.3+
060123 703  1.0-  0.3+    060202 651  0.5+  0.0     060227 A70  0.4-  0.9-
060123 703  0.3+  0.7-    060202 699  0.0   1.4+    060227 A70  0.1-  0.1+
060123 703  0.4-  0.7+    060202 699  0.2-  0.0     060302 J95  0.2-  0.2-
060124 198  0.2+  0.0     060202 699  0.2+  0.1+    060302 J95  0.1-  0.2-
060124 198  0.2+  0.0     060202 699  0.2+  0.1-    060302 J95  0.1-  0.2-
060124 198  0.2+  0.0     060202 703  0.1+  0.6-    060303 071  0.3-  0.5+
060124 198  0.2+  0.1+    060202 703  0.8-  0.3+    060303 071  1.5+  0.4+
060124 198  0.2+  0.0     060204 H45 (2.2+  1.3-)   060305 H98  0.7+  0.0
060124 198  0.1+  0.1+    060204 H45  1.0+  0.4-    060305 H98  0.1+  0.5-
060124 J95  0.1+  0.1+    060204 H45  0.3-  0.9-    060305 H98  0.0   0.5-
060124 461  0.2+  0.0     060204 H45  0.3+  1.1-    060305 H98  0.3-  0.6-
060124 J95  0.1+  0.1-    060205 J95  0.1+  0.3-    060306 703  0.4-  0.4+
060124 461  0.5+  0.1-    060205 J95  0.5-  0.0     060306 703  0.0   0.1+
060124 461  0.1+  0.1+    060205 H45  0.8+  1.4-    060306 703  0.2-  0.2-
060124 461  0.1+  0.1+    060205 H45  0.2-  1.7-    060306 703  0.3-  0.2-
060124 461  0.3+  0.1+    060205 H45  0.6+  0.6-    060306 147  0.1-  0.2-
060124 J95  0.5-  0.1+    060205 H45  0.0   1.4-    060306 147  0.3-  0.2-
060124 461  0.1-  0.4+    060206 699  0.2-  0.6+    060306 147  0.1-  0.2-
060124 734 (2.3+  1.2+)   060206 699  0.4+  0.4-    060307 A49  0.4-  0.5+
060124 734  0.1-  0.4+    060206 699  0.4+  0.3+    060307 A49  0.5-  0.0
060124 734 (2.4+  0.0 )   060206 699  0.2+  0.4+    060307 A49  0.3+  1.5+
060124 734  0.6+  0.9-    060206 703  0.4-  0.7+    060307 A49  0.0   0.3-
060125 A13  0.4-  0.1+    060206 703  0.5-  0.0     060307 A49  0.1-  0.4+
060125 A13  0.6-  0.3+    060206 703  0.3-  0.2+    060307 A49  0.6+  0.2+
060125 A13  0.6-  0.7+    060208 J95  0.1-  0.2+    060307 157  0.1+  0.3-
060125 A13  1.0-  0.9-    060208 J95  0.1+  0.1+    060307 157  0.1-  0.3-
060125 246  0.7+  0.2+    060208 J95  0.2+  0.0     060307 157  0.4+  0.0
060125 246  1.0+  0.7+    060208 703  0.4+  0.1-    060313 198  0.1-  0.2+
060125 246  0.4-  0.5+    060208 703  0.2-  0.1-    060313 198  0.1-  0.1+
060125 246  0.6+  0.5+    060208 703  0.0   0.3-    060313 198  0.1-  0.0
060125 246  0.3+  0.1+    060208 703  0.5+  0.4-    060313 198  0.0   0.0
060125 246  0.7+  0.2-    060211 A13  0.2-  0.4+    060313 198  0.2-  0.1-
060125 H05  0.6-  0.8-    060211 A13  0.5-  0.5+    060315 644  0.1+  0.2-
060125 H05  0.2-  0.2-    060211 A13  1.0-  0.4+    060315 644  0.0   0.2-
060125 H05  0.3+  0.4-    060211 A13  0.8-  0.3+    060315 644  0.1+  0.0
060126 J95  0.1-  0.2-    060211 A13  0.6-  0.5+    060317 355  0.2-  0.1-
060126 J95  0.0   0.3-    060212 204  0.6-  0.5+    060317 355  0.5+  0.7-
060126 J95  0.1-  0.4-    060212 204  0.5-  0.5+    060317 355  0.3-  1.0-
060126 E12  0.2-  0.3-    060212 204  0.3-  0.5+    060318 704  0.3+  0.7+
060126 E12  0.2+  0.7-    060221 703  0.0   0.0     060318 704  0.9+  0.4+
060127 G96  0.1+  0.6-    060221 703  0.2-  0.2-    060318 704  0.5+  0.1+
060127 G96  0.0   0.0     060221 703  0.3-  0.1-    060318 198  0.0   0.4+
060127 G96  0.3-  0.3-    060221 703  0.2-  0.2+    060318 198  0.1-  0.3+
060127 G96  0.0   0.2-    060222 699  0.1+  0.5+    060318 198  0.0   0.3+
060127 G96  0.4+  0.2+    060222 699  0.0   0.2+    060318 198  0.0   0.3+
060127 G96  0.2-  0.1+    060222 704  0.5+  0.3+    060324 703  0.8-  0.7-
060127 G96  0.1-  0.0     060222 699  0.1-  0.2+    060324 703  0.5-  0.8-
060128 J95  0.1-  0.1-    060222 704  0.4+  0.2+    060324 703  0.5-  1.3-
060128 J95  0.1+  0.1-    060222 704  0.3+  0.3+    060324 703  1.4-  0.7-
060128 675  0.6+  0.2+    060222 704  0.6+  0.2-    060330 704  0.7+  0.6-
060128 675  0.5+  0.2+    060222 704  0.1+  0.1+    060330 704  0.3+  0.3+
060128 675  0.6+  0.4-    060223 704  0.3-  0.0     060330 704  0.8+  0.4-
060128 G96  0.4-  0.1-    060223 704  0.0   1.4+    060418 704  0.5-  0.8+
060128 G96  0.2+  0.4-    060223 704  0.9+  0.5-    060418 704  0.1-  1.2+
060128 G96  0.1-  0.4-    060223 704  0.8-  1.3+    060418 704  0.5+  0.5+
060128 G96  0.2-  0.2-    060223 704  0.7+  0.8+    060418 704  0.4+  0.5+
060129 012  1.2-  0.3+    060223 704  0.2-  0.4+    060501 290  0.1+  0.1+
060129 012  0.4-  0.4+    060223 704  0.8+  0.9+    060501 290  0.1+  0.0
060129 012  0.3+  0.6-    060223 704  0.6+  0.2+    060501 290  0.1+  0.0
060129 012 (2.2+  1.3-)   060223 704  0.3+  0.7+    060501 290  0.2+  0.0
060129 H45  1.2+  0.8-    060223 704  0.4+  0.4+    060822 204  0.1+  0.5-
060129 H45  0.1+  0.5-    060223 704  0.3+  0.3+    060822 204  0.1+  0.3-
060129 H45  0.0   0.1+    060223 704  0.2-  0.0     060822 J95  0.7-  0.5-
060129 H45  0.0   0.2+    060223 704  0.7+  0.6+    060822 J95  0.5+  0.2+
060129 H45  1.2+  0.9-    060223 704  0.3+  0.1+    060823 204  0.2+  0.3-
060131 844  0.1+  1.3-    060223 704 (0.9-  2.4+)   060823 204  0.1+  0.3-
060131 844  1.5-  0.5+    060223 704  1.1+  0.1+
060131 844  0.8-  0.4+    060223 704  0.4+  1.2+

Ephemeris:
2006 BZ8                 a,e,i = 9.67, 0.80, 165                 q = 1.8977
Date    TT    R. A. (2000) Decl.     Delta      r     Elong.  Phase     V
2006 08 23    06 43.92   +34 23.8    2.451    1.983    51.3    23.5    18.7
2006 09 02    06 36.40   +35 14.8    2.276    2.018    62.4    26.3    18.7
2006 09 12    06 24.31   +36 18.0    2.086    2.058    74.4    28.1    18.6
2006 09 22    06 05.54   +37 30.9    1.888    2.102    87.7    28.5    18.4
2006 10 02    05 37.12   +38 42.0    1.696    2.151   102.7    27.0    18.2
2006 10 12    04 56.04   +39 21.1    1.529    2.203   119.8    23.1    17.9
2006 10 22    04 01.95   +38 31.9    1.412    2.259   138.9    16.8    17.6
2006 11 01    03 01.46   +35 20.7    1.370    2.318   157.3     9.5    17.3
2006 11 11    02 06.34   +30 03.3    1.419    2.379   161.7     7.5    17.4
2006 11 21    01 24.11   +24 08.1    1.553    2.443   147.2    12.7    17.8
2006 12 01    00 55.08   +18 53.3    1.754    2.509   130.4    17.4    18.3
2006 12 11    00 36.35   +14 47.3    1.999    2.576   115.1    20.3    18.8
2006 12 21    00 24.89   +11 46.6    2.268    2.645   101.4    21.4    19.1
2006 12 31    00 18.49   +09 38.1    2.547    2.715    89.0    21.2    19.4
2007 01 10    00 15.58   +08 09.0    2.826    2.786    77.6    20.2    19.7
2007 01 20    00 15.13   +07 08.9    3.096    2.858    67.0    18.5    19.9
2007 01 30    00 16.42   +06 30.1    3.351    2.931    56.9    16.3    20.0

Gareth V. Williams           (C) Copyright 2006 MPC           M.P.E.C. 2006-Q21

Read MPEC 2006-Q20 Read MPEC 2006-Q22


Our Web policy. Index to the CBAT/MPC/ICQ pages.


Valid HTML 4.01!